Location: Wavehorne
(51.0500°N, 0.8333°E)
Time: 14:37:29
(UTC+00:00)

Cosmos 1603 - Pass Details

Date: 20 June 2021
Orbit: 832 x 858 km, 71.0° (Epoch: 01 August)

Event Time Altitude Azimuth Distance (km) Brightness Sun altitude
Exits shadow 01:41:28 16° 218° (SW) 2,098 5.1 -12.1°
Maximum altitude 01:46:08 72° 302° (WNW) 888 3.8 -11.8°
Drops below altitude 10° 01:51:48 10° 27° (NNE) 2,466 7.7 -11.4°
Sets 01:54:15 0° 30° (NNE) 3,401 9.1 -11.3°
